SCP
0 0 0 0 0 0 0 0 0 0 0 0 0 1 1 1 1 1 1 1 2 2 1 1 1 1 1 1 1 2 2 1 1 1 1 1 1 1 1 1 1 1 1 1
0 0 0 0 0 0 0 0 0 0 0 0 1 1 1 1 1 1 1 2 2 2 1 1 1 1 1 1 1 1 1 1 1 1 1 1 1 1 1 1 1 1 1 1
0 0 0 0 0 0 0 0 0 0 0 0 1 1 1 1 1 1 1 2 2 2 2 2 1 1 1 1 1 1 1 1 1 1 1 1 1 1 1 1 1 0 0 0
0 0 0 0 0 0 0 0 0 0 0 1 1 1 1 1 1 1 1 2 2 2 2 2 2 1 1 1 1 1 1 1 1 1 1 1 1 1 1 1 1 0 0 0
0 0 0 0 0 0 0 0 0 0 0 1 0 1 1 1 1 1 1 1 2 2 2 1 1 1 1 1 1 1 1 1 1 1 1 1 1 1 1 1 1 1 0 0
0 0 0 0 0 0 0 0 1 1 1 1 0 0 1 1 1 1 1 1 1 1 1 1 1 1 1 1 1 1 1 1 1 1 1 1 1 1 1 1 1 1 1 1
0 0 0 0 0 0 0 0 0 1 1 1 1 1 1 1 1 1 1 1 1 1 1 1 1 1 1 1 1 1 1 1 1 1 1 1 1 1 1 1 1 1 1 1
0 0 0 0 0 0 0 0 0 0 1 1 1 1 1 1 1 1 1 1 1 1 1 1 1 1 1 1 1 1 1 1 1 1 1 1 1 1 1 1 1 1 1 1
0 0 0 0 0 0 0 0 0 0 1 1 1 1 1 1 1 1 1 1 1 1 1 1 1 1 1 1 1 1 1 1 1 1 1 1 1 1 1 1 1 0 0 0
0 0 0 0 0 0 0 0 0 0 0 1 1 1 1 1 1 1 1 1 1 1 1 1 1 1 1 1 1 1 1 1 1 1 1 1 1 1 1 1 0 0 0 0
0 0 0 0 0 0 0 0 0 0 0 1 1 1 1 1 1 1 0 0 1 1 1 1 1 1 1 1 1 1 1 1 1 1 1 1 1 0 0 0 0 0 0 0
0 0 0 0 0 0 0 0 0 0 0 0 1 1 1 0 0 0 0 0 0 1 1 1 1 1 1 1 1 1 1 1 1 1 1 1 0 0 0 0 0 0 0 0
0 0 0 0 0 0 0 0 0 0 0 0 0 0 0 0 0 0 0 0 0 0 0 0 0 0 0 0 1 1 1 1 1 0 0 0 0 0 0 0 0 0 0 0
0 0 0 0 0 0 0 0 0 0 0 0 0 0 0 0 0 0 0 0 0 0 0 0 0 0 0 0 0 1 1 0 0 0 0 0 0 0 0 0 0 0 0 0
0 0 0 0 0 0 0 0 0 0 0 0 0 0 0 0 0 0 0 0 0 0 0 0 0 0 0 0 0 0 0 0 0 0 0 0 0 0 0 0 0 0 0 0
0 0 0 0 0 0 0 0 0 0 0 0 0 0 0 0 0 0 0 0 0 0 0 0 0 0 0 1 1 0 0 0 0 0 0 0 0 0 0 0 0 0 0 0
0 0 0 0 0 0 0 0 0 0 0 0 0 0 0 0 0 0 0 0 0 0 0 0 0 0 0 1 0 0 0 0 0 0 0 0 0 0 0 0 0 0 0 0
0 0 0 0 0 0 0 0 0 0 0 0 0 0 0 0 0 0 0 0 0 0 0 0 0 0 0 0 0 0 0 0 0 0 0 0 0 0 0 0 0 0 0 0
0 0 0 0 0 0 0 0 0 0 0 0 0 0 0 0 0 0 0 0 0 0 0 0 0 0 0 0 0 0 0 0 0 0 0 0 0 0 0 0 0 0 0 0
0 0 0 0 0 0 0 0 0 0 0 0 0 0 0 0 0 0 0 0 0 0 0 0 0 0 0 0 0 0 0 0 0 0 0 0 0 0 0 0 0 0 0 0
0 0 0 0 0 0 0 0 0 0 0 0 0 0 0 0 0 0 0 0 0 0 0 0 0 0 0 0 0 0 0 0 0 0 0 0 0 0 0 0 0 0 0 0
0 0 0 0 0 0 0 0 0 0 0 0 0 0 0 0 0 0 0 0 0 0 0 0 0 0 0 0 0 0 0 0 0 0 0 0 0 0 0 0 0 0 0 0
0 0 0 0 0 0 0 0 0 0 0 0 0 0 0 0 0 0 0 0 0 0 0 0 0 0 0 0 0 0 0 0 0 0 0 0 0 0 0 0 0 0 0 0
0 0 0 0 0 0 0 0 0 0 0 0 0 0 0 0 0 0 0 0 0 0 0 0 0 0 0 0 0 0 0 0 0 0 0 0 0 0 0 0 0 0 0 0
0 0 0 0 0 0 0 0 0 0 0 0 0 0 0 0 0 0 0 0 0 0 0 0 0 0 0 0 0 0 0 0 0 0 0 0 0 0 0 0 0 0 0 0
0 0 0 0 0 0 0 0 0 0 0 0 0 0 0 0 0 0 0 0 0 0 0 0 0 0 0 0 0 0 0 0 0 0 0 0 0 0 0 0 0 0 0 0
0 0 0 0 0 0 0 0 0 0 0 0 0 0 0 0 0 0 0 0 0 0 0 0 0 0 0 0 0 0 0 0 0 0 0 0 0 0 0 0 0 0 0 0
Wind_Speed
13 14 14 13 13 12 12 11 9 6 4 2 1 2 2 3 4 6 6 6 6 6 6 5 5 4 3 3 3 3 3 3 2 2 1 1 1 1 0 1 1 1 2 2
14 15 14 14 14 13 11 9 7 5 1 2 2 3 2 3 4 3 5 5 6 6 5 4 4 3 3 2 3 3 3 3 2 2 1 1 1 1 0 1 2 2 2 2
12 13 12 14 11 10 8 7 5 4 2 2 2 2 1 2 3 3 3 4 5 5 4 3 3 3 3 2 3 3 2 2 2 2 2 1 1 1 1 1 1 1 1 1
11 11 14 7 4 5 6 5 3 1 2 3 3 1 1 2 3 3 3 4 4 4 4 4 3 3 2 2 3 3 3 2 2 2 1 1 1 1 0 1 1 1 1 1
8 11 11 7 3 4 5 2 2 1 2 2 2 1 3 4 3 3 3 4 4 4 3 3 3 3 2 2 2 2 2 2 2 1 1 1 1 1 1 1 1 2 2 1
9 11 10 3 2 5 6 4 1 2 1 1 1 2 1 2 2 2 3 4 4 4 4 4 3 3 2 2 1 1 1 1 1 1 0 1 1 1 1 2 2 2 1 1
12 11 5 3 5 4 4 1 3 2 2 3 3 2 2 3 3 3 4 4 5 4 4 3 2 2 2 2 1 0 1 1 1 1 1 1 1 1 2 2 2 2 2 2
9 9 4 3 3 2 2 3 3 3 4 4 4 4 3 4 4 3 3 3 4 4 4 3 3 2 2 1 0 0 0 0 0 1 2 1 1 2 2 3 3 3 3 3
2 1 2 4 4 3 2 2 3 3 3 2 2 2 3 3 3 3 2 2 3 3 4 3 2 2 2 1 0 0 0 1 1 1 2 2 2 2 3 3 3 3 2 2
2 2 2 3 4 3 3 3 3 2 2 1 1 2 2 2 2 2 2 2 2 3 2 2 2 2 1 1 1 1 1 1 1 1 2 1 2 2 2 2 2 2 2 2
3 2 1 0 1 2 2 3 3 2 1 0 1 2 2 2 1 1 2 1 1 2 2 2 2 2 2 1 1 1 1 2 2 2 2 1 1 2 2 2 2 2 2 2
2 2 2 1 2 1 1 2 2 2 1 1 1 2 2 1 0 1 1 1 1 2 2 2 2 2 2 2 2 2 2 2 2 2 2 2 2 1 1 2 2 2 2 2
2 4 2 1 1 2 2 2 2 1 1 0 1 2 2 2 1 1 2 2 3 2 2 2 2 2 2 2 2 2 2 3 3 3 3 3 3 2 2 2 3 3 4 3
2 2 1 2 2 2 4 3 2 1 1 1 1 1 1 1 1 2 2 3 3 3 3 3 3 3 2 2 2 2 3 3 4 3 3 3 3 3 2 2 2 2 3 4
2 2 2 2 2 3 3 3 2 2 1 1 1 1 2 1 2 2 2 2 2 2 3 3 3 2 2 2 2 2 3 3 3 3 3 4 3 3 3 3 3 2 1 2
4 3 2 2 3 3 4 3 2 2 2 1 1 2 2 2 2 2 2 2 2 3 3 2 2 2 2 2 2 3 3 5 4 4 5 4 4 3 3 3 3 2 2 1
4 3 3 2 3 3 3 3 2 2 2 3 3 3 3 3 3 2 2 2 2 3 3 2 3 3 3 3 3 3 4 4 5 5 5 4 4 4 4 3 3 3 2 2
4 4 4 3 4 4 4 3 2 2 2 2 2 1 2 2 2 2 1 1 2 2 3 3 3 3 3 3 3 4 4 4 5 5 5 4 4 4 4 4 4 3 2 2
3 3 3 3 4 3 3 2 2 2 2 2 2 2 3 3 3 2 2 2 3 3 3 2 2 3 4 2 4 4 5 5 5 5 5 4 4 4 4 4 4 3 3 2
3 3 3 3 3 2 2 2 2 1 1 2 2 2 2 2 2 2 2 3 2 2 1 1 3 3 3 3 4 5 5 6 6 5 4 4 5 4 4 4 4 3 3 3
2 2 3 3 2 1 1 1 2 2 2 2 2 2 2 2 2 2 3 3 1 1 2 3 3 2 3 3 5 6 6 6 6 5 5 5 4 4 4 4 3 3 3 3
2 2 3 2 2 2 2 2 2 2 2 2 3 2 2 2 3 3 3 2 2 1 2 2 1 2 3 5 5 5 6 6 5 5 5 4 4 3 4 4 4 4 3 3
2 2 2 3 2 3 3 3 2 2 2 2 2 2 2 2 2 2 2 1 1 0 2 2 1 2 4 5 5 5 5 5 5 5 5 4 4 4 4 4 4 4 3 3
1 2 2 2 2 1 2 2 2 2 2 2 2 2 2 2 2 2 1 1 1 0 2 2 3 4 5 5 5 5 5 5 5 5 5 5 4 4 4 4 4 4 3 3
1 2 2 2 2 1 1 1 1 1 2 1 2 3 2 2 2 1 1 1 1 2 3 3 6 7 7 5 5 5 5 5 5 5 5 5 5 5 4 3 3 3 2 3
1 2 2 2 2 2 2 1 1 2 2 1 1 1 2 2 2 1 1 2 3 3 4 3 4 5 5 4 4 4 5 4 5 5 5 5 5 5 4 4 4 3 3 2
1 1 1 2 2 1 1 1 2 2 2 2 2 2 2 2 2 2 3 3 3 3 3 3 4 4 4 4 4 4 4 4 4 4 4 4 4 3 3 4 3 2 2 2
Wind_Direction
263 269 270 272 268 260 255 262 260 245 222 164 91 118 123 124 125 133 135 139 131 126 122 124 121 112 110 121 113 111 114 119 127 148 154 142 135 119 67 323 314 313 301 288
267 264 267 266 262 261 260 264 263 259 199 118 59 32 74 105 117 129 137 138 129 125 120 122 125 129 119 117 114 116 120 127 127 128 119 132 143 127 105 5 347 338 320 320
267 268 270 259 260 263 265 268 269 267 142 135 93 21 35 97 109 97 115 114 119 121 118 118 117 111 121 127 124 128 121 113 109 109 94 75 90 86 42 352 342 326 324 337
264 264 257 262 279 269 261 269 277 220 111 106 101 104 98 89 85 85 105 105 108 114 116 119 118 122 122 135 139 133 123 113 108 111 100 73 64 51 8 304 287 286 279 269
260 257 252 252 286 299 275 253 328 2 77 95 126 176 115 86 78 83 112 106 105 109 110 104 109 119 121 127 125 127 123 112 98 81 71 49 30 0 321 304 288 268 257 241
252 261 260 273 298 299 269 228 31 53 62 259 236 241 131 70 88 101 104 112 111 109 104 99 93 107 121 122 116 116 109 101 84 59 58 7 338 319 307 285 269 262 253 237
245 254 263 350 333 307 262 14 29 45 34 13 13 26 78 100 90 88 92 105 114 113 111 109 106 103 107 99 87 54 64 67 47 320 284 255 299 306 289 273 263 258 254 247
246 253 248 356 333 17 43 21 17 29 41 47 62 78 80 82 83 90 88 99 117 120 115 113 114 122 126 114 247 211 159 301 337 313 293 275 273 285 286 280 265 244 233 238
259 230 89 53 63 67 43 22 27 25 29 56 77 87 88 99 101 107 108 111 122 124 128 133 137 142 164 163 243 218 212 257 271 293 305 301 285 276 264 256 259 257 240 236
274 153 121 82 71 47 16 2 356 4 11 68 114 112 95 100 102 107 110 103 124 140 145 142 151 168 184 187 212 204 241 258 259 250 257 266 286 287 288 299 300 309 299 290
263 281 299 265 90 56 8 338 348 352 358 74 124 134 118 123 128 131 123 120 157 164 169 189 183 186 211 194 188 202 233 261 267 259 251 258 264 287 290 304 297 292 304 313
293 338 299 339 33 25 329 328 341 336 318 132 136 139 129 149 109 138 147 141 204 204 203 210 203 192 206 210 208 215 244 259 270 279 271 260 255 264 306 278 247 237 246 266
332 302 316 1 342 330 302 287 295 301 289 178 147 151 147 160 191 220 199 201 231 233 221 218 222 211 214 217 217 216 245 261 264 267 267 264 261 258 270 296 276 260 248 243
320 319 303 289 292 299 291 275 265 247 207 142 146 164 167 185 217 241 232 225 232 244 247 236 232 231 221 222 216 230 251 254 257 263 271 269 267 264 267 265 274 279 251 233
292 261 252 261 269 269 274 258 230 223 193 150 149 191 212 216 232 248 253 245 242 247 254 247 251 251 235 240 227 236 256 262 265 272 274 271 269 267 273 284 283 279 266 215
275 256 248 260 274 282 281 256 225 204 188 181 191 206 211 213 221 238 255 239 225 244 253 258 273 273 244 234 235 242 250 257 264 268 266 266 263 264 266 266 274 280 266 250
274 283 282 286 291 291 283 264 243 227 207 194 204 214 221 213 203 203 230 243 239 244 249 252 259 257 245 240 250 257 260 257 256 266 266 270 272 274 273 271 271 272 269 254
274 278 285 284 275 267 264 261 253 250 242 231 209 201 213 206 205 214 226 241 250 263 265 259 265 263 255 246 256 260 260 262 260 262 267 270 272 276 279 276 269 270 264 233
279 284 287 284 284 282 278 275 264 247 229 222 224 233 238 235 228 228 236 242 238 246 258 269 250 253 262 264 274 266 265 268 267 261 260 257 261 266 268 268 267 259 261 256
280 290 302 290 284 293 308 319 308 273 227 231 237 242 252 251 239 234 242 249 253 264 259 265 259 259 264 270 269 268 268 270 270 267 263 261 260 263 268 272 278 281 273 263
324 305 298 303 316 331 335 309 287 273 256 244 240 242 246 252 252 251 246 259 257 255 253 247 246 262 280 290 274 273 274 272 272 276 272 266 264 265 266 266 272 273 268 268
312 310 304 317 336 346 343 325 310 301 289 272 258 252 251 250 245 247 250 254 243 224 253 266 290 334 317 296 276 274 277 282 281 281 278 274 270 269 266 266 265 262 255 254
299 306 313 320 334 340 337 328 322 318 307 295 289 277 266 271 274 272 270 266 274 327 285 303 323 308 302 288 287 285 285 287 288 286 286 283 274 272 275 274 270 266 262 256
310 325 322 325 319 321 330 328 332 339 328 317 308 295 284 278 273 263 263 178 149 215 294 275 232 250 263 270 277 279 281 284 287 293 294 289 284 279 276 274 272 271 261 258
338 330 325 325 311 313 309 289 281 276 277 286 285 288 288 287 287 305 315 304 247 244 270 251 232 236 250 265 272 277 284 292 295 298 297 296 293 292 291 285 278 278 282 285
348 329 333 321 327 320 305 291 286 289 284 281 290 299 301 297 295 297 283 284 282 269 268 264 257 248 258 266 273 282 284 281 277 277 285 290 294 300 301 298 295 295 298 300
357 322 316 320 326 322 321 334 335 331 322 317 314 308 303 302 306 306 297 292 290 288 289 288 286 282 279 279 285 287 286 287 290 295 299 301 299 300 300 297 292 287 291 299